Location: Unspecified
(42.2730°N, 83.7130°W)
Time: 13:43:55
(UTC+00:00)

USA 238 DEB - Pass Details

Date: 14 December 2025
Orbit: 883 x 1328 km, 63.4° (Epoch: 10 January)

Event Time Altitude Azimuth Distance (km) Brightness Sun altitude
Rises 23:27:10 0° 228° (SW) 3,511 7.7 -14.9°
Reaches altitude 10° 23:29:38 10° 233° (SW) 2,604 6.9 -15.4°
Maximum altitude 23:35:34 57° 311° (NW) 1,133 4.0 -16.4°
Enters shadow 23:41:24 13° 28° (NNE) 2,604 5.3 -17.5°
